When you browse on this site, cookies collect data to enhance your experience and personalize the content and advertising you see.
Visit our Privacy Policy to learn more. By continuing to use the site, you agree to this use of cookies and data.

Stündliche Wetter Mangush

Heute, 20 September, Sonntag

Zeit Temperatur Niederschläge Wind Luftdruck Luftfeuchtigkeit
00:00 +13°C° 0 mm 2 m/S 758 mmHg 50%
01:00 +13°C° 0 mm 2 m/S 758 mmHg 51%
02:00 +12°C° 0 mm 2 m/S 758 mmHg 53%
03:00 +11°C° 0 mm 3 m/S 758 mmHg 55%
04:00 +11°C° 0 mm 3 m/S 758 mmHg 57%
05:00 +11°C° 0 mm 3 m/S 758 mmHg 59%
06:00 +13°C° 0 mm 3 m/S 758 mmHg 52%
07:00 +16°C° 0 mm 3 m/S 758 mmHg 46%
08:00 +18°C° 0 mm 3 m/S 758 mmHg 40%
09:00 +20°C° 0 mm 4 m/S 758 mmHg 35%
10:00 +21°C° 0 mm 4 m/S 758 mmHg 29%
11:00 +23°C° 0 mm 4 m/S 758 mmHg 24%
12:00 +23°C° 0 mm 4 m/S 758 mmHg 23%
13:00 +25°C° 0 mm 4 m/S 758 mmHg 22%
14:00 +25°C° 0 mm 4 m/S 758 mmHg 21%
15:00 +23°C° 0 mm 4 m/S 758 mmHg 25%
16:00 +22°C° 0 mm 3 m/S 758 mmHg 29%
17:00 +21°C° 0 mm 3 m/S 758 mmHg 32%
18:00 +20°C° 0 mm 3 m/S 758 mmHg 34%
19:00 +18°C° 0 mm 4 m/S 759 mmHg 36%
20:00 +15°C° 0 mm 4 m/S 759 mmHg 38%
21:00 +14°C° 0 mm 4 m/S 759 mmHg 40%
22:00 +14°C° 0 mm 4 m/S 760 mmHg 42%
23:00 +13°C° 0 mm 5 m/S 760 mmHg 44%

Morgen, 21 September, Montag

Zeit Temperatur Niederschläge Wind Luftdruck Luftfeuchtigkeit
00:00 +12°C° 0 mm 4 m/S 760 mmHg 47%
01:00 +12°C° 0 mm 4 m/S 760 mmHg 50%
02:00 +11°C° 0 mm 4 m/S 760 mmHg 52%
03:00 +11°C° 0 mm 4 m/S 760 mmHg 54%
04:00 +10°C° 0 mm 4 m/S 761 mmHg 55%
05:00 +10°C° 0 mm 4 m/S 761 mmHg 57%
06:00 +12°C° 0 mm 4 m/S 761 mmHg 52%
07:00 +14°C° 0 mm 4 m/S 761 mmHg 47%
08:00 +17°C° 0 mm 4 m/S 761 mmHg 43%
09:00 +18°C° 0 mm 4 m/S 761 mmHg 38%
10:00 +19°C° 0 mm 4 m/S 761 mmHg 33%
11:00 +21°C° 0 mm 4 m/S 761 mmHg 29%
12:00 +21°C° 0 mm 4 m/S 761 mmHg 27%
13:00 +22°C° 0 mm 4 m/S 760 mmHg 25%
14:00 +23°C° 0 mm 4 m/S 760 mmHg 23%
15:00 +22°C° 0 mm 3 m/S 760 mmHg 25%
16:00 +21°C° 0 mm 3 m/S 760 mmHg 28%
17:00 +20°C° 0 mm 2 m/S 759 mmHg 30%
18:00 +18°C° 0 mm 2 m/S 760 mmHg 33%
19:00 +17°C° 0 mm 2 m/S 760 mmHg 35%
20:00 +15°C° 0 mm 2 m/S 760 mmHg 38%
21:00 +14°C° 0 mm 3 m/S 760 mmHg 35%
22:00 +14°C° 0 mm 4 m/S 760 mmHg 33%
23:00 +13°C° 0 mm 4 m/S 760 mmHg 30%

übermorgen, 22 September, Dienstag

Zeit Temperatur Niederschläge Wind Luftdruck Luftfeuchtigkeit
00:00 +13°C° 0 mm 4 m/S 760 mmHg 31%
01:00 +12°C° 0 mm 4 m/S 760 mmHg 33%
02:00 +12°C° 0 mm 4 m/S 760 mmHg 34%
03:00 +12°C° 0 mm 4 m/S 760 mmHg 35%
04:00 +11°C° 0 mm 4 m/S 760 mmHg 36%
05:00 +11°C° 0 mm 4 m/S 760 mmHg 37%
06:00 +13°C° 0 mm 4 m/S 760 mmHg 33%
07:00 +15°C° 0 mm 4 m/S 760 mmHg 30%
08:00 +17°C° 0 mm 5 m/S 761 mmHg 27%
09:00 +20°C° 0 mm 5 m/S 761 mmHg 24%
10:00 +22°C° 0 mm 5 m/S 760 mmHg 22%
11:00 +25°C° 0 mm 5 m/S 760 mmHg 19%
12:00 +25°C° 0 mm 5 m/S 760 mmHg 18%
13:00 +26°C° 0 mm 4 m/S 760 mmHg 17%
14:00 +26°C° 0 mm 4 m/S 759 mmHg 16%
15:00 +25°C° 0 mm 4 m/S 759 mmHg 18%
16:00 +24°C° 0 mm 3 m/S 759 mmHg 19%
17:00 +23°C° 0 mm 2 m/S 759 mmHg 21%
18:00 +20°C° 0 mm 3 m/S 759 mmHg 22%
19:00 +19°C° 0 mm 3 m/S 759 mmHg 23%
20:00 +18°C° 0 mm 3 m/S 759 mmHg 23%
21:00 +17°C° 0 mm 4 m/S 759 mmHg 23%
22:00 +17°C° 0 mm 4 m/S 759 mmHg 23%
23:00 +15°C° 0 mm 4 m/S 759 mmHg 24%

23 September, Mittwoch

Zeit Temperatur Niederschläge Wind Luftdruck Luftfeuchtigkeit
00:00 +15°C° 0 mm 4 m/S 759 mmHg 25%
01:00 +14°C° 0 mm 4 m/S 758 mmHg 25%
02:00 +14°C° 0 mm 4 m/S 758 mmHg 26%
03:00 +13°C° 0 mm 4 m/S 758 mmHg 29%
04:00 +13°C° 0 mm 4 m/S 758 mmHg 31%
05:00 +13°C° 0 mm 4 m/S 758 mmHg 34%
06:00 +15°C° 0 mm 5 m/S 758 mmHg 34%
07:00 +17°C° 0 mm 5 m/S 758 mmHg 34%
08:00 +19°C° 0 mm 5 m/S 758 mmHg 35%
09:00 +21°C° 0 mm 5 m/S 758 mmHg 33%
10:00 +23°C° 0 mm 6 m/S 758 mmHg 31%
11:00 +26°C° 0 mm 6 m/S 758 mmHg 29%
12:00 +27°C° 0 mm 6 m/S 757 mmHg 27%
13:00 +27°C° 0 mm 6 m/S 757 mmHg 25%
14:00 +28°C° 0 mm 6 m/S 756 mmHg 22%
15:00 +27°C° 0 mm 5 m/S 756 mmHg 24%
16:00 +26°C° 0 mm 4 m/S 756 mmHg 25%
17:00 +23°C° 0 mm 4 m/S 755 mmHg 26%
18:00 +22°C° 0 mm 4 m/S 756 mmHg 28%
19:00 +21°C° 0 mm 4 m/S 756 mmHg 29%
20:00 +20°C° 0 mm 4 m/S 756 mmHg 31%
21:00 +19°C° 0 mm 5 m/S 756 mmHg 31%
22:00 +19°C° 0 mm 5 m/S 756 mmHg 31%
23:00 +17°C° 0 mm 5 m/S 756 mmHg 31%

24 September, Donnerstag

Zeit Temperatur Niederschläge Wind Luftdruck Luftfeuchtigkeit
00:00 +17°C° 0 mm 5 m/S 755 mmHg 34%
01:00 +16°C° 0 mm 5 m/S 755 mmHg 38%
02:00 +16°C° 0 mm 5 m/S 755 mmHg 42%
03:00 +15°C° 0 mm 5 m/S 755 mmHg 44%
04:00 +15°C° 0 mm 5 m/S 755 mmHg 47%
05:00 +14°C° 0 mm 5 m/S 755 mmHg 50%
06:00 +16°C° 0 mm 5 m/S 755 mmHg 47%
07:00 +19°C° 0 mm 6 m/S 755 mmHg 44%
08:00 +21°C° 0 mm 6 m/S 755 mmHg 42%
09:00 +22°C° 0 mm 6 m/S 755 mmHg 37%
10:00 +24°C° 0 mm 7 m/S 755 mmHg 33%
11:00 +26°C° 0 mm 7 m/S 755 mmHg 28%
12:00 +27°C° 0 mm 7 m/S 755 mmHg 30%
13:00 +27°C° 0 mm 6 m/S 754 mmHg 33%
14:00 +28°C° 0 mm 6 m/S 754 mmHg 35%
15:00 +27°C° 0 mm 5 m/S 754 mmHg 36%
16:00 +26°C° 0 mm 5 m/S 754 mmHg 37%
17:00 +26°C° 0 mm 5 m/S 754 mmHg 37%
18:00 +25°C° 0 mm 5 m/S 754 mmHg 40%
19:00 +23°C° 0 mm 5 m/S 754 mmHg 42%
20:00 +21°C° 0 mm 5 m/S 754 mmHg 44%
21:00 +21°C° 0 mm 5 m/S 753 mmHg 45%
22:00 +20°C° 0 mm 5 m/S 753 mmHg 46%
23:00 +20°C° 0 mm 5 m/S 753 mmHg 47%

25 September, Freitag

Zeit Temperatur Niederschläge Wind Luftdruck Luftfeuchtigkeit
00:00 +19°C° 0 mm 5 m/S 753 mmHg 46%
01:00 +19°C° 0 mm 5 m/S 753 mmHg 46%
02:00 +19°C° 0 mm 5 m/S 753 mmHg 45%
03:00 +17°C° 0 mm 5 m/S 753 mmHg 46%
04:00 +17°C° 0 mm 6 m/S 753 mmHg 46%
05:00 +17°C° 0 mm 6 m/S 753 mmHg 47%
06:00 +17°C° 0 mm 6 m/S 752 mmHg 46%
07:00 +18°C° 0 mm 7 m/S 752 mmHg 46%
08:00 +20°C° 0 mm 7 m/S 752 mmHg 45%
09:00 +22°C° 0 mm 7 m/S 752 mmHg 44%
10:00 +23°C° 0 mm 7 m/S 752 mmHg 44%
11:00 +24°C° 0 mm 7 m/S 751 mmHg 43%
12:00 +26°C° 0 mm 6 m/S 751 mmHg 42%
13:00 +27°C° 0 mm 6 m/S 751 mmHg 41%
14:00 +27°C° 0 mm 5 m/S 751 mmHg 40%
15:00 +27°C° 0 mm 5 m/S 750 mmHg 42%
16:00 +26°C° 0 mm 4 m/S 750 mmHg 43%
17:00 +25°C° 0 mm 4 m/S 750 mmHg 45%
18:00 +25°C° 0 mm 4 m/S 750 mmHg 45%
19:00 +23°C° 0 mm 4 m/S 750 mmHg 46%
20:00 +22°C° 0 mm 4 m/S 749 mmHg 46%
21:00 +22°C° 0 mm 4 m/S 749 mmHg 47%
22:00 +21°C° 0 mm 4 m/S 749 mmHg 48%
23:00 +21°C° 0 mm 4 m/S 749 mmHg 49%
Mehr zeigen